Location: Domont
(49.0278°N, 2.3264°E)
Time: 20:16:07
(UTC+00:00)

AO-7 - Visible Passes

Search period start: 29 June 2022 00:00
Search period end: 09 July 2022 00:00
Orbit: 1439 x 1459 km, 101.9° (Epoch: 29 June)

Date Brightness Start Highest point End Pass type
(mag) Time Alt. Az. Time Alt. Az. Time Alt. Az.
30 Jun ? 02:52:10 10° NE 02:58:11 21° E 03:04:11 10° SE visible
02 Jul ? 02:45:24 10° NE 02:51:00 19° E 02:56:34 10° SE visible
04 Jul ? 02:38:42 10° NE 02:43:48 17° E 02:48:53 10° SE visible
06 Jul ? 02:32:04 10° NE 02:36:35 15° E 02:41:06 10° ESE visible
08 Jul ? 02:25:34 10° NE 02:29:22 14° E 02:33:09 10° ESE visible
